Location: Buffign�court
(47.8126°N, 6.0176°E)
Time: 13:10:33
(UTC+00:00)

Cosmos 1331 Rocket - Pass Details

Date: 16 June 2021
Orbit: 749 x 778 km, 74.0° (Epoch: 31 July)

Event Time Altitude Azimuth Distance (km) Brightness Sun altitude
Exits shadow 21:22:11 - 195° (SSW) 2,586 6.3 -12.7°
Reaches altitude 10° 21:22:57 10° 194° (SSW) 2,293 6.1 -12.7°
Maximum altitude 21:28:08 76° 110° (ESE) 796 4.0 -13.2°
Drops below altitude 10° 21:33:25 10° 25° (NNE) 2,329 7.0 -13.6°
Sets 21:35:49 0° 24° (NNE) 3,264 7.8 -13.8°
